[[{"header":{"parameterUnit":"m.s-1","parameterCategory":2,"la1":30.2991,"la2":30.254,"lo1":-89.0895,"lo2":-89.0444,"dy":0.0017,"dx":0.0017,"nx":28,"ny":28,"refTime":"2023-09-01T21:00:00:Z","depth":"0","parameterNumber":2,"parameterNumberName":"U-component_of_CURRENTS"},"data":[0,0,0,0,0,0,0,0,0,0,0,0,0,0,0,0,0,0,0,0,0,0,0,0,0,0,0,0,0,0,0,0,0,0,0,0,0,0,0,0,0,0,0,0,0,0,0,0,0,0,0,0,0,0,0,0,0,0,0.2142,0.2142,0,0.2124,0.2124,0.2123,0.2106,0.2106,0.2106,0.2106,0.2066,0.2065,0.2064,0,0,0,0,0,0,0,0,0,0,0,0,0,0.2127,0.2127,0.2142,0.2142,0.2142,0.2124,0.2124,0.2123,0.2106,0.2106,0.2106,0.2106,0.2066,0.2065,0.2064,0,0,0,0,0,0,0,0,0,0,0,0,0,0.2122,0.2127,0.2142,0.2133,0.2132,0.2124,0.2124,0.2123,0.2106,0.2106,0.2106,0.2106,0.2066,0.2065,0.2063,0.2054,0,0,0.2059,0.2058,0,0,0,0,0,0,0,0,0.2122,0.2122,0.2134,0.2134,0.2133,0.2119,0.2103,0.21,0.2106,0.2114,0.2106,0.2106,0.2083,0.208,0.2074,0.2052,0.205,0.2058,0.2057,0.2057,0.2056,0,0,0,0,0,0,0,0.2122,0.2122,0.2133,0.2135,0.2134,0.2118,0.2117,0.2102,0.2097,0.2113,0.2112,0.2114,0.2082,0.2075,0.2073,0.205,0.2058,0.2057,0.2056,0.2055,0.2038,0.2039,0,0,0,0,0,0,0.2131,0.2123,0.2133,0.2132,0.213,0.2118,0.2118,0.2122,0.2097,0.2094,0.2114,0.2113,0.2078,0.2075,0.2071,0.2086,0.2057,0.2055,0.2054,0.2038,0.2038,0.2039,0,0,0,0,0,0,0.2131,0.2132,0.2134,0.2129,0.2128,0.2119,0.2124,0.2121,0.2121,0.2098,0.2095,0.2116,0.2078,0.2074,0.2066,0.2083,0.2055,0.2053,0.2037,0.2038,0.2039,0.2098,0,0,0,0,0,0,0.213,0.2132,0.2139,0.213,0.2129,0.2139,0.2124,0.2121,0.2122,0.2121,0.2099,0.2095,0.2078,0.2068,0.2064,0.2081,0.2052,0.2036,0.2037,0.2038,0.2096,0.2101,0.2105,0,0,0,0,0,0.213,0.214,0.2139,0.2141,0.2138,0.214,0.2138,0.213,0.2123,0.2127,0.2111,0.2096,0.2071,0.2067,0.2062,0.2079,0.2036,0.2037,0.2038,0.2093,0.21,0.2105,0,0,0,0,0,0,0.2137,0.2139,0.2138,0.2149,0.215,0.2138,0.2141,0.2135,0.2125,0.2122,0.2099,0.2095,0.2096,0.2076,0.2073,0.2076,0.2052,0.2052,0.2096,0.2102,0.2106,0.2118,0.2051,0,0,0,0,0,0.2143,0.215,0.215,0.2159,0.216,0.2152,0.2151,0.2146,0.2137,0.2132,0.2118,0.2103,0.2096,0.209,0.2078,0.2076,0.2088,0.2084,0.2089,0.2093,0.2099,0.2132,0.2142,0.2042,0.2042,0.2042,0,0,0.2147,0.215,0.2153,0.2161,0.2158,0.2164,0.2151,0.2153,0.2159,0.2129,0.213,0.2119,0.2099,0.2102,0.21,0.2088,0.2131,0.2095,0.2099,0.2102,0.2135,0.2145,0.2153,0.2043,0.2043,0.2043,0,0,0.2156,0.2163,0.217,0.2175,0.2179,0.2175,0.218,0.2174,0.2173,0.2173,0.2158,0.2159,0.2139,0.2137,0.2131,0.2153,0.2157,0.2148,0.2182,0.2215,0.2224,0.2232,0.228,0.2291,0.215,0.215,0.215,0,0.2159,0.2171,0.2173,0.2182,0.2189,0.2183,0.2192,0.2193,0.2186,0.2195,0.218,0.2178,0.2158,0.2176,0.2181,0.2167,0.2191,0.2164,0.2224,0.2231,0.2239,0.2285,0.2298,0.2153,0.2153,0.2152,0.2152,0,0.2171,0.2184,0.219,0.2201,0.2209,0.2217,0.2221,0.223,0.2228,0.2232,0.2251,0.2232,0.2236,0.223,0.2208,0.225,0.2254,0.223,0.2214,0.2253,0.2299,0.2311,0.2157,0.2156,0.2155,0.2155,0,0,0.2161,0.2192,0.2192,0.2207,0.222,0.2227,0.2246,0.2266,0.2287,0.2288,0.2318,0.2308,0.2312,0.2305,0.229,0.2309,0.2379,0.2292,0.2292,0.2349,0.2473,0.2517,0.2534,0.237,0.2371,0.2373,0.2494,0,0.2166,0.2192,0.2205,0.2229,0.2243,0.2256,0.2276,0.2296,0.2312,0.2342,0.2346,0.2364,0.2338,0.2345,0.2366,0.2372,0.2409,0.2349,0.2418,0.242,0.2462,0.2548,0.2493,0.2599,0.2505,0.2507,0.2508,0,0.2165,0.2187,0.2212,0.2252,0.2259,0.2272,0.2312,0.2329,0.2374,0.2392,0.2426,0.2432,0.2471,0.2431,0.2499,0.2466,0.2479,0.2482,0.2487,0.2513,0.2486,0.2539,0.2623,0.2566,0.2526,0.2524,0.2523,0,0.215,0.2188,0.2211,0.2223,0.2265,0.2282,0.2301,0.2344,0.2378,0.2428,0.247,0.251,0.2544,0.2566,0.2595,0.255,0.2673,0.261,0.2669,0.2672,0.2632,0.2629,0.2674,0.2664,0.2664,0.2664,0.2663,0,0.2144,0.2161,0.2207,0.2218,0.2248,0.2278,0.2316,0.2346,0.2411,0.2455,0.2498,0.255,0.2579,0.265,0.2647,0.2729,0.273,0.2707,0.2717,0.2653,0.2651,0.2601,0.2564,0.2668,0.2667,0.2666,0.2666,0,0.2113,0.2145,0.2171,0.2221,0.2239,0.2253,0.2322,0.2353,0.2425,0.2488,0.2513,0.2615,0.2714,0.2769,0.2824,0.2818,0.2804,0.2885,0.2825,0.2826,0.2801,0.2768,0.2711,0.2627,0.2963,0.2965,0.2967,0,0.2094,0.2107,0.216,0.2173,0.2191,0.2229,0.2254,0.2337,0.238,0.2518,0.2549,0.2692,0.2777,0.2932,0.2964,0.3033,0.2896,0.2994,0.2887,0.2831,0.2801,0.2643,0.2562,0.286,0.2861,0.2861,0.2862,0,0.2049,0.2069,0.2089,0.2125,0.2151,0.2189,0.2238,0.2286,0.238,0.2469,0.2588,0.268,0.2868,0.2936,0.3061,0.3071,0.2871,0.3007,0.2952,0.2747,0.2572,0.2486,0.2759,0.2867,0.2866,0.2866,0.2865,0.2865,0.1999,0.1999,0.2028,0.2058,0.2093,0.2126,0.2134,0.2215,0.2299,0.2399,0.2539,0.2654,0.2831,0.3017,0.3021,0.302,0.2936,0.2926,0.2903,0.2755,0.2636,0.2947,0.3059,0.3059,0.306,0.306,0.3061,0,0.1918,0.1933,0.1959,0.1983,0.1994,0.2045,0.2101,0.2102,0.2164,0.232,0.243,0.2626,0.2749,0.2861,0.2983,0.2923,0.2729,0.2844,0.2588,0.252,0.2819,0.2777,0.2829,0.2829,0.2829,0.2829,0.2829,0.283,0.1868,0.1856,0.1879,0.1872,0.1896,0.1876,0.189,0.1925,0.202,0.2143,0.2264,0.2406,0.2668,0.2869,0.2886,0.2818,0.2584,0.2508,0.2448,0.2663,0.2666,0.2669,0.262,0.2638,0.2638,0.203,0.2026,0.2023]},{"header":{"parameterUnit":"m.s-1","parameterCategory":2,"la1":30.2991,"la2":30.254,"lo1":-89.0895,"lo2":-89.0444,"dy":0.0017,"dx":0.0017,"nx":28,"ny":28,"refTime":"2023-09-01T21:00:00:Z","depth":"0","parameterNumber":3,"parameterNumberName":"V-component_of_CURRENTS"},"data":[0,0,0,0,0,0,0,0,0,0,0,0,0,0,0,0,0,0,0,0,0,0,0,0,0,0,0,0,0,0,0,0,0,0,0,0,0,0,0,0,0,0,0,0,0,0,0,0,0,0,0,0,0,0,0,0,0,0,-0.0058,-0.0059,0,-0.01,-0.0101,-0.0101,-0.0134,-0.0134,-0.0134,-0.0134,-0.0191,-0.0192,-0.0194,0,0,0,0,0,0,0,0,0,0,0,0,0,-0.003,-0.003,-0.0058,-0.0059,-0.0059,-0.01,-0.0101,-0.0101,-0.0134,-0.0134,-0.0134,-0.0134,-0.0191,-0.0192,-0.0194,0,0,0,0,0,0,0,0,0,0,0,0,0,-0.0055,-0.003,-0.0058,-0.0079,-0.0082,-0.01,-0.0101,-0.0102,-0.0133,-0.0134,-0.0134,-0.0134,-0.019,-0.0192,-0.0194,-0.02,0,0,-0.02,-0.0201,0,0,0,0,0,0,0,0,-0.0053,-0.0056,-0.0076,-0.0078,-0.008,-0.0111,-0.0111,-0.0135,-0.0133,-0.0115,-0.0134,-0.0135,-0.0165,-0.0169,-0.0177,-0.0203,-0.0205,-0.02,-0.0201,-0.0202,-0.0203,0,0,0,0,0,0,0,-0.0051,-0.0054,-0.0076,-0.0076,-0.0079,-0.0095,-0.0098,-0.0116,-0.0139,-0.0117,-0.0119,-0.0122,-0.0166,-0.0175,-0.0179,-0.0206,-0.02,-0.0202,-0.0203,-0.0204,-0.0244,-0.0244,0,0,0,0,0,0,-0.0043,-0.0053,-0.0075,-0.0077,-0.0066,-0.0095,-0.0099,-0.0102,-0.0138,-0.0144,-0.0121,-0.0123,-0.0172,-0.0177,-0.0181,-0.0196,-0.0202,-0.0204,-0.0205,-0.0244,-0.0244,-0.0244,0,0,0,0,0,0,-0.0042,-0.0044,-0.0073,-0.0065,-0.007,-0.0095,-0.0098,-0.0102,-0.0112,-0.0141,-0.0148,-0.0125,-0.0172,-0.0178,-0.0194,-0.0198,-0.0205,-0.0207,-0.0245,-0.0244,-0.0244,-0.0223,0,0,0,0,0,0,-0.0041,-0.0044,-0.0042,-0.0064,-0.007,-0.008,-0.0097,-0.0103,-0.0113,-0.0115,-0.0147,-0.0153,-0.0173,-0.0191,-0.0196,-0.0201,-0.0208,-0.0245,-0.0244,-0.0244,-0.0224,-0.0222,-0.022,0,0,0,0,0,-0.004,-0.0034,-0.0042,-0.0044,-0.0067,-0.008,-0.0084,-0.0104,-0.0112,-0.0114,-0.0135,-0.0152,-0.0193,-0.0192,-0.0198,-0.0204,-0.0245,-0.0245,-0.0244,-0.0224,-0.0222,-0.0221,0,0,0,0,0,0,-0.0021,-0.0037,-0.0046,-0.0046,-0.0061,-0.0085,-0.0086,-0.01,-0.0118,-0.0119,-0.015,-0.0157,-0.0172,-0.0188,-0.0186,-0.0215,-0.0222,-0.0223,-0.0205,-0.0203,-0.0202,-0.019,-0.021,0,0,0,0,0,-0.0015,-0.0016,-0.0036,-0.0036,-0.004,-0.0062,-0.007,-0.0082,-0.0101,-0.0109,-0.0132,-0.0155,-0.0176,-0.0188,-0.0206,-0.0221,-0.0237,-0.0229,-0.0227,-0.0226,-0.022,-0.0253,-0.0254,-0.0243,-0.0243,-0.0243,0,0,-0.0008,-0.0017,-0.0018,-0.0032,-0.0043,-0.0046,-0.0068,-0.0074,-0.0079,-0.0112,-0.0124,-0.0148,-0.0177,-0.0194,-0.0203,-0.0209,-0.0235,-0.0226,-0.0224,-0.0219,-0.0253,-0.0254,-0.0255,-0.0243,-0.0243,-0.0243,0,0,0.0011,-0.0001,0.0007,-0.0003,-0.0015,-0.003,-0.003,-0.0052,-0.0064,-0.0077,-0.0104,-0.0129,-0.0157,-0.0184,-0.0199,-0.0198,-0.0223,-0.0205,-0.0193,-0.0225,-0.0226,-0.0227,-0.0239,-0.0242,-0.0208,-0.0208,-0.0208,0,0.0022,0.0026,0.0007,0.0012,0.0009,-0.002,-0.0012,-0.003,-0.0056,-0.0063,-0.0075,-0.0125,-0.0152,-0.018,-0.0183,-0.0196,-0.021,-0.0199,-0.0223,-0.0225,-0.0226,-0.0239,-0.0242,-0.0207,-0.0207,-0.0207,-0.0207,0,0.0046,0.0048,0.0053,0.0049,0.0041,0.0044,0.002,0.001,-0.0009,-0.0029,-0.0056,-0.0097,-0.0126,-0.0145,-0.0165,-0.0193,-0.0197,-0.0215,-0.0228,-0.0226,-0.0239,-0.0243,-0.0205,-0.0206,-0.0206,-0.0206,0,0,0.0078,0.0072,0.0074,0.0082,0.0063,0.0064,0.0054,0.0039,0.004,-0.0001,-0.0007,-0.0062,-0.0087,-0.0107,-0.0143,-0.0179,-0.0206,-0.0201,-0.0203,-0.0211,-0.0264,-0.0239,-0.0241,-0.0232,-0.0233,-0.0234,-0.0265,0,0.0105,0.0126,0.0112,0.013,0.014,0.0111,0.0108,0.0088,0.0066,0.0052,-0.0005,-0.0023,-0.0072,-0.0083,-0.013,-0.0182,-0.0216,-0.0195,-0.0265,-0.0266,-0.0245,-0.0245,-0.0225,-0.0249,-0.0268,-0.0269,-0.0269,0,0.0138,0.0148,0.0171,0.0178,0.018,0.0182,0.0177,0.0169,0.0133,0.0117,0.0075,0.004,-0.0016,-0.0055,-0.0154,-0.0138,-0.0197,-0.0244,-0.0246,-0.0233,-0.0249,-0.0256,-0.0255,-0.0398,-0.0275,-0.0275,-0.0274,0,0.0179,0.0192,0.0214,0.0215,0.0213,0.0217,0.0212,0.0189,0.0199,0.0159,0.0168,0.0086,0.0068,-0.0032,-0.0122,-0.0141,-0.022,-0.0259,-0.0294,-0.0292,-0.0292,-0.0289,-0.0437,-0.033,-0.033,-0.033,-0.033,0,0.0217,0.0237,0.0236,0.0249,0.0279,0.0259,0.0286,0.0267,0.0262,0.0287,0.0207,0.0221,0.0073,0.0016,-0.0095,-0.0189,-0.02,-0.0285,-0.03,-0.0282,-0.0278,-0.0416,-0.0495,-0.0331,-0.0331,-0.033,-0.033,0,0.0259,0.0257,0.0287,0.0294,0.03,0.032,0.0346,0.0368,0.0352,0.0383,0.038,0.0328,0.026,0.0124,-0.0016,-0.0128,-0.0311,-0.0269,-0.0223,-0.0233,-0.0407,-0.0484,-0.0623,-0.0695,-0.0323,-0.0322,-0.0322,0,0.0284,0.0302,0.0326,0.0352,0.0357,0.0386,0.0411,0.0408,0.0445,0.0462,0.0492,0.0448,0.0448,0.026,0.0056,-0.0122,-0.0274,-0.024,-0.0284,-0.0409,-0.0508,-0.0567,-0.0623,-0.0276,-0.0276,-0.0275,-0.0275,0,0.0333,0.0337,0.0362,0.0414,0.0447,0.0492,0.0533,0.0582,0.0591,0.0642,0.0706,0.0715,0.0546,0.0399,0.0148,-0.0004,-0.034,-0.0233,-0.0391,-0.0501,-0.0549,-0.0627,-0.0254,-0.027,-0.027,-0.0271,-0.0271,-0.0271,0.0372,0.0399,0.0433,0.0484,0.0529,0.06,0.0657,0.0724,0.0815,0.0909,0.0894,0.0957,0.0698,0.0378,0.0141,-0.0276,-0.0295,-0.041,-0.0497,-0.0546,-0.0614,-0.0211,-0.0228,-0.0228,-0.0228,-0.0228,-0.0229,0,0.0423,0.0453,0.0505,0.057,0.0636,0.0646,0.0744,0.0821,0.0955,0.1063,0.1145,0.1102,0.077,0.039,-0.0153,-0.0474,-0.0625,-0.0666,-0.0774,-0.0823,-0.0488,-0.0484,-0.0524,-0.0524,-0.0523,-0.0523,-0.0523,-0.0523,0.0455,0.0511,0.0535,0.0652,0.0704,0.0805,0.0871,0.0994,0.1106,0.1285,0.1373,0.1409,0.1157,0.0141,-0.059,-0.0783,-0.1022,-0.1058,-0.1193,-0.0994,-0.0978,-0.0962,-0.098,-0.1123,-0.1123,-0.1492,-0.1496,-0.1499]}],[{"header":{"parameterUnit":"m.s-1","parameterCategory":2,"la1":30.2991,"la2":30.254,"lo1":-89.0895,"lo2":-89.0444,"dy":0.0017,"dx":0.0017,"nx":28,"ny":28,"refTime":"2023-09-01T21:00:00:Z","depth":"2","parameterNumber":2,"parameterNumberName":"U-component_of_CURRENTS"},"data":[0,0,0,0,0,0,0,0,0,0,0,0,0,0,0,0,0,0,0,0,0,0,0,0,0,0,0,0,0,0,0,0,0,0,0,0,0,0,0,0,0,0,0,0,0,0,0,0,0,0,0,0,0,0,0,0,0,0,0.1736,0.1736,0,0.174,0.174,0.174,0.1731,0.1731,0.1731,0.1731,0.1728,0.1728,0.1728,0,0,0,0,0,0,0,0,0,0,0,0,0,0.1729,0.1729,0.1736,0.1736,0.1736,0.174,0.174,0.174,0.1731,0.1731,0.1731,0.1731,0.1728,0.1728,0.1728,0,0,0,0,0,0,0,0,0,0,0,0,0,0.1731,0.1729,0.1736,0.1733,0.1733,0.174,0.174,0.174,0.1731,0.1731,0.1731,0.1731,0.1728,0.1728,0.1728,0.1733,0,0,0.1728,0.1728,0,0,0,0,0,0,0,0,0.1731,0.1731,0.1734,0.1734,0.1734,0.1736,0.1736,0.1738,0.1731,0.1731,0.1731,0.1731,0.1731,0.173,0.173,0.1733,0.1733,0.1728,0.1728,0.1728,0.1728,0,0,0,0,0,0,0,0.1731,0.1731,0.1736,0.1734,0.1734,0.1735,0.1735,0.1736,0.1731,0.1731,0.1731,0.1733,0.173,0.173,0.173,0.1733,0.1728,0.1728,0.1728,0.1728,0.1743,0.1743,0,0,0,0,0,0,0.1733,0.1731,0.1736,0.1737,0.1733,0.1735,0.1735,0.1734,0.1731,0.1731,0.1733,0.1733,0.173,0.173,0.173,0.1759,0.1728,0.1728,0.1728,0.1743,0.1743,0.1744,0,0,0,0,0,0,0.1733,0.1733,0.1736,0.1735,0.1736,0.1736,0.1735,0.1735,0.1743,0.1733,0.1732,0.1743,0.173,0.173,0.1734,0.1758,0.1728,0.1728,0.1742,0.1743,0.1743,0.1803,0,0,0,0,0,0,0.1732,0.1733,0.1744,0.1735,0.1736,0.1746,0.1735,0.1735,0.1745,0.1744,0.1741,0.174,0.173,0.1734,0.1734,0.1758,0.1728,0.1742,0.1743,0.1743,0.1801,0.1806,0.181,0,0,0,0,0,0.1732,0.1746,0.1744,0.1746,0.1747,0.1746,0.1747,0.1745,0.1746,0.1751,0.1746,0.1741,0.1738,0.1734,0.1734,0.1759,0.1742,0.1742,0.1743,0.1799,0.1805,0.181,0,0,0,0,0,0,0.1746,0.1746,0.1744,0.1757,0.1754,0.1745,0.1753,0.1753,0.1755,0.1755,0.1746,0.1744,0.176,0.1745,0.1742,0.1762,0.1739,0.174,0.1781,0.1787,0.1791,0.1803,0.1729,0,0,0,0,0,0.1755,0.1764,0.176,0.1768,0.1768,0.1764,0.1768,0.1764,0.1761,0.1762,0.1762,0.1759,0.1762,0.1763,0.1762,0.1773,0.1784,0.1786,0.1791,0.1795,0.1804,0.184,0.1849,0.1746,0.1746,0.1746,0,0,0.1757,0.1763,0.1765,0.1773,0.1769,0.1774,0.1765,0.1769,0.1782,0.1761,0.1782,0.178,0.1769,0.1783,0.1788,0.1774,0.1832,0.1796,0.18,0.1806,0.1842,0.1852,0.1861,0.1747,0.1747,0.1746,0,0,0.1765,0.1774,0.1782,0.1786,0.179,0.1789,0.1794,0.1794,0.1802,0.1816,0.1809,0.1819,0.1821,0.1822,0.1821,0.1848,0.1859,0.1848,0.1881,0.1916,0.1926,0.1934,0.1974,0.1985,0.1846,0.1847,0.1847,0,0.1775,0.178,0.1784,0.1795,0.1803,0.1798,0.1807,0.1817,0.1821,0.184,0.1828,0.1854,0.1841,0.1869,0.1873,0.1862,0.1886,0.1864,0.1925,0.1933,0.1941,0.198,0.1992,0.1849,0.1849,0.1849,0.1849,0,0.1775,0.1792,0.1797,0.181,0.1822,0.1827,0.1839,0.1859,0.1871,0.1883,0.1921,0.191,0.1929,0.1924,0.1904,0.1953,0.1955,0.1933,0.1917,0.1956,0.1993,0.2005,0.1854,0.1853,0.1852,0.1851,0,0,0.1765,0.1794,0.1795,0.1813,0.1832,0.184,0.1873,0.1903,0.1936,0.1951,0.1995,0.1999,0.2009,0.2007,0.1995,0.2012,0.2081,0.1997,0.1997,0.2048,0.2175,0.2143,0.2152,0.2078,0.208,0.2081,0.2185,0,0.1764,0.179,0.1806,0.1835,0.1849,0.1873,0.1905,0.1939,0.197,0.2013,0.2027,0.206,0.2037,0.2051,0.2072,0.208,0.2112,0.2056,0.212,0.2122,0.2098,0.2164,0.2003,0.2078,0.2196,0.2198,0.2199,0,0.1754,0.1777,0.1806,0.1859,0.1868,0.1891,0.1953,0.1982,0.2044,0.2074,0.2122,0.2135,0.218,0.2141,0.2209,0.218,0.2188,0.2187,0.2191,0.2147,0.2111,0.2055,0.2095,0.2218,0.2217,0.2215,0.2214,0,0.1738,0.1781,0.1809,0.1822,0.1876,0.1908,0.194,0.2003,0.2047,0.212,0.2165,0.2219,0.226,0.2281,0.2295,0.2263,0.2361,0.2316,0.2301,0.2299,0.2166,0.2149,0.2368,0.2368,0.2368,0.2367,0.2367,0,0.1731,0.1751,0.1806,0.182,0.1858,0.1907,0.1966,0.2006,0.2089,0.2139,0.2199,0.2255,0.2298,0.2354,0.2343,0.2376,0.2415,0.233,0.233,0.2182,0.2166,0.2278,0.2267,0.2371,0.2371,0.237,0.2369,0,0.1701,0.1736,0.1767,0.1829,0.185,0.1877,0.1967,0.2011,0.2101,0.2172,0.2202,0.2318,0.2392,0.2429,0.2475,0.245,0.2463,0.2459,0.2289,0.2266,0.2365,0.2355,0.2461,0.2461,0.246,0.246,0.246,0,0.1681,0.1701,0.1757,0.1777,0.1805,0.1861,0.1897,0.1993,0.2044,0.2196,0.2221,0.2348,0.2396,0.249,0.2476,0.2488,0.2497,0.2337,0.2235,0.2389,0.2379,0.2368,0.2359,0.2089,0.2086,0.2084,0.2081,0,0.1643,0.1668,0.1691,0.1734,0.1771,0.1813,0.1877,0.1919,0.203,0.21,0.2198,0.2259,0.2377,0.2334,0.2379,0.235,0.232,0.2286,0.2511,0.2086,0.2046,0.2033,0.2034,0.2059,0.2061,0.2063,0.2064,0.2065,0.1603,0.1605,0.1643,0.1676,0.1718,0.1747,0.1753,0.1826,0.1883,0.1955,0.2081,0.2117,0.2182,0.2169,0.2118,0.2096,0.2235,0.2127,0.2131,0.214,0.2073,0.2035,0.2034,0.2036,0.2038,0.204,0.2041,0,0.1537,0.1555,0.1587,0.1609,0.1619,0.1675,0.172,0.1707,0.1717,0.1825,0.1881,0.1782,0.1794,0.1856,0.1797,0.1808,0.1756,0.173,0.1644,0.1671,0.1694,0.16,0.1438,0.1435,0.1433,0.143,0,0,0.1504,0.1495,0.1509,0.1494,0.1522,0.15,0.1503,0.1492,0.1545,0.1543,0.1567,0.1718,0.1825,0.1597,0.1589,0.1506,0.1565,0.1452,0.1949,0.1877,0.1896,0.1952,0.1843,0,0,0,0,0]},{"header":{"parameterUnit":"m.s-1","parameterCategory":2,"la1":30.2991,"la2":30.254,"lo1":-89.0895,"lo2":-89.0444,"dy":0.0017,"dx":0.0017,"nx":28,"ny":28,"refTime":"2023-09-01T21:00:00:Z","depth":"2","parameterNumber":3,"parameterNumberName":"V-component_of_CURRENTS"},"data":[0,0,0,0,0,0,0,0,0,0,0,0,0,0,0,0,0,0,0,0,0,0,0,0,0,0,0,0,0,0,0,0,0,0,0,0,0,0,0,0,0,0,0,0,0,0,0,0,0,0,0,0,0,0,0,0,0,0,0.006,0.006,0,0.0011,0.0011,0.001,-0.0019,-0.0019,-0.0019,-0.0019,-0.0086,-0.0088,-0.0089,0,0,0,0,0,0,0,0,0,0,0,0,0,0.0084,0.0084,0.006,0.006,0.0059,0.0011,0.0011,0.001,-0.0019,-0.0019,-0.0019,-0.0019,-0.0085,-0.0088,-0.009,0,0,0,0,0,0,0,0,0,0,0,0,0,0.0057,0.0084,0.006,0.004,0.0038,0.0012,0.0011,0.001,-0.0019,-0.0019,-0.0019,-0.0019,-0.0085,-0.0087,-0.009,-0.0105,0,0,-0.0098,-0.0099,0,0,0,0,0,0,0,0,0.0059,0.0056,0.0043,0.0041,0.0039,0.0003,-0.0006,-0.0029,-0.0019,0.0002,-0.0019,-0.0019,-0.0057,-0.0062,-0.0072,-0.0109,-0.0111,-0.0098,-0.01,-0.0101,-0.0102,0,0,0,0,0,0,0,0.0061,0.0058,0.004,0.0043,0.004,0.0018,0.0014,-0.0011,-0.0028,-0.0,-0.0002,-0.0006,-0.0059,-0.007,-0.0074,-0.0112,-0.0098,-0.0101,-0.0102,-0.0103,-0.0159,-0.0159,0,0,0,0,0,0,0.0071,0.006,0.0041,0.0038,0.005,0.0018,0.0014,0.0014,-0.0028,-0.0033,-0.0006,-0.0007,-0.0065,-0.0071,-0.0077,-0.0095,-0.0101,-0.0103,-0.0105,-0.0159,-0.0159,-0.0159,0,0,0,0,0,0,0.0072,0.007,0.0043,0.0049,0.0044,0.0018,0.0018,0.0013,0.0001,-0.0031,-0.0038,-0.0012,-0.0066,-0.0073,-0.0094,-0.0098,-0.0105,-0.0107,-0.0159,-0.0159,-0.0159,-0.0133,0,0,0,0,0,0,0.0073,0.0071,0.0072,0.005,0.0044,0.0032,0.0018,0.0012,-0.0001,-0.0003,-0.0039,-0.0045,-0.0066,-0.0089,-0.0096,-0.0101,-0.0109,-0.0159,-0.0159,-0.0159,-0.0134,-0.0132,-0.013,0,0,0,0,0,0.0074,0.0078,0.0072,0.007,0.0047,0.0033,0.0028,0.0008,-0.0001,-0.0004,-0.0026,-0.0044,-0.0093,-0.0091,-0.0099,-0.0106,-0.0159,-0.0159,-0.0159,-0.0135,-0.0132,-0.013,0,0,0,0,0,0,0.009,0.0075,0.0068,0.0068,0.0054,0.0028,0.0024,0.0009,-0.0011,-0.0013,-0.0044,-0.0052,-0.0072,-0.009,-0.0088,-0.012,-0.0129,-0.013,-0.0108,-0.0106,-0.0104,-0.009,-0.0111,0,0,0,0,0,0.0095,0.0094,0.0076,0.0076,0.0071,0.0047,0.0038,0.0026,0.0006,-0.0004,-0.0029,-0.0055,-0.0077,-0.0092,-0.0113,-0.0133,-0.015,-0.0141,-0.0139,-0.0137,-0.013,-0.0164,-0.0165,-0.0158,-0.0158,-0.0158,0,0,0.0101,0.0093,0.0093,0.008,0.0067,0.0063,0.0041,0.0032,0.0027,-0.0008,-0.0024,-0.0049,-0.008,-0.0099,-0.011,-0.0116,-0.0147,-0.0137,-0.0135,-0.0129,-0.0164,-0.0165,-0.0165,-0.0158,-0.0158,-0.0158,0,0,0.0117,0.0109,0.0113,0.0104,0.009,0.0076,0.0075,0.0051,0.0037,0.002,-0.0006,-0.0031,-0.0066,-0.009,-0.0106,-0.0107,-0.0135,-0.0115,-0.0099,-0.0131,-0.0132,-0.0133,-0.015,-0.0153,-0.0116,-0.0116,-0.0116,0,0.0124,0.0131,0.0112,0.0115,0.0112,0.0084,0.009,0.0071,0.0043,0.0034,0.0021,-0.0032,-0.0061,-0.0087,-0.0087,-0.0103,-0.012,-0.0105,-0.0129,-0.0131,-0.0132,-0.0149,-0.0153,-0.0115,-0.0115,-0.0115,-0.0115,0,0.0145,0.0148,0.0151,0.0147,0.014,0.0141,0.0118,0.0107,0.0087,0.0066,0.0037,-0.0004,-0.0034,-0.0052,-0.0072,-0.0097,-0.0104,-0.0122,-0.0134,-0.0131,-0.0149,-0.0153,-0.0113,-0.0114,-0.0114,-0.0114,0,0,0.0171,0.0167,0.0169,0.0176,0.016,0.0159,0.015,0.0136,0.0136,0.0094,0.0088,0.0033,0.0007,-0.0012,-0.0047,-0.0078,-0.0107,-0.0102,-0.0104,-0.0117,-0.0169,-0.017,-0.0174,-0.0132,-0.0133,-0.0133,-0.0175,0,0.0195,0.0212,0.02,0.0217,0.0226,0.0203,0.02,0.0181,0.0159,0.0145,0.0091,0.0071,0.0023,0.0011,-0.0032,-0.0084,-0.0117,-0.0093,-0.0171,-0.0173,-0.0173,-0.0179,-0.0162,-0.0198,-0.0179,-0.018,-0.0181,0,0.0223,0.0232,0.0252,0.0261,0.0263,0.0264,0.0264,0.0257,0.0225,0.0207,0.0168,0.0131,0.0079,0.0041,-0.0059,-0.0041,-0.0101,-0.0146,-0.0149,-0.0161,-0.0181,-0.0199,-0.0206,-0.0188,-0.0187,-0.0186,-0.0186,0,0.0258,0.027,0.029,0.0292,0.0293,0.0297,0.0294,0.0274,0.0285,0.0246,0.0255,0.0175,0.0152,0.0057,-0.0038,-0.005,-0.0137,-0.0169,-0.0226,-0.0227,-0.0232,-0.0231,-0.0239,-0.0239,-0.0239,-0.0238,-0.0238,0,0.0292,0.031,0.0308,0.0321,0.035,0.0332,0.0358,0.0343,0.0342,0.0365,0.0288,0.0298,0.0156,0.0093,-0.0014,-0.0124,-0.0124,-0.022,-0.024,-0.0221,-0.0219,-0.0227,-0.0225,-0.024,-0.024,-0.0239,-0.0239,0,0.0328,0.0326,0.0353,0.0361,0.0367,0.0385,0.0413,0.0436,0.0421,0.0451,0.0448,0.0393,0.0305,0.017,0.0028,-0.0077,-0.0191,-0.0229,-0.0187,-0.0202,-0.0265,-0.0262,-0.0307,-0.0307,-0.0308,-0.0308,-0.0308,0,0.0349,0.0364,0.0387,0.041,0.0414,0.0441,0.0468,0.047,0.0507,0.0519,0.0548,0.0482,0.0449,0.0242,0.0043,-0.0144,-0.0171,-0.0247,-0.0278,-0.0259,-0.0274,-0.0269,-0.0265,-0.0273,-0.0273,-0.0273,-0.0273,0,0.039,0.0393,0.0414,0.0462,0.0493,0.054,0.058,0.0627,0.064,0.0674,0.0714,0.0691,0.0494,0.0312,0.0052,-0.008,-0.0221,-0.0252,-0.0248,-0.0255,-0.023,-0.0243,-0.024,-0.0273,-0.0273,-0.0273,-0.0273,-0.0273,0.0421,0.0443,0.0471,0.0518,0.0564,0.0633,0.0683,0.0739,0.0811,0.0863,0.0839,0.0811,0.0592,0.0268,0.0037,-0.021,-0.0209,-0.0297,-0.0297,-0.0296,-0.0281,-0.0257,-0.0302,-0.0302,-0.0302,-0.0303,-0.0303,0,0.0456,0.0481,0.0529,0.0587,0.0649,0.0667,0.0759,0.0816,0.0908,0.0948,0.0973,0.0788,0.0573,0.0324,-0.004,-0.026,-0.0288,-0.0327,-0.0312,-0.031,-0.0309,-0.0295,-0.032,-0.0321,-0.0321,-0.0322,0,0,0.0476,0.0522,0.0544,0.0648,0.0698,0.0791,0.085,0.0931,0.0988,0.1035,0.1024,0.0966,0.0666,0.0408,0.0102,-0.0104,-0.0159,-0.0151,-0.0115,-0.0059,-0.0055,-0.0271,-0.0244,0,0,0,0,0]}],[{"header":{"parameterUnit":"m.s-1","parameterCategory":2,"la1":30.2991,"la2":30.254,"lo1":-89.0895,"lo2":-89.0444,"dy":0.0017,"dx":0.0017,"nx":28,"ny":28,"refTime":"2023-09-01T21:00:00:Z","depth":"4","parameterNumber":2,"parameterNumberName":"U-component_of_CURRENTS"},"data":[0,0,0,0,0,0,0,0,0,0,0,0,0,0,0,0,0,0,0,0,0,0,0,0,0,0,0,0,0,0,0,0,0,0,0,0,0,0,0,0,0,0,0,0,0,0,0,0,0,0,0,0,0,0,0,0,0,0,0.095,0.0951,0,0.0995,0.0995,0.0996,0.1035,0.1036,0.1037,0.1037,0.1091,0.1092,0.1093,0,0,0,0,0,0,0,0,0,0,0,0,0,0.0883,0.0884,0.095,0.0951,0.0952,0.0995,0.0995,0.0996,0.1035,0.1036,0.1037,0.1038,0.1091,0.1092,0.1093,0,0,0,0,0,0,0,0,0,0,0,0,0,0.0916,0.0884,0.095,0.0978,0.0981,0.0995,0.0995,0.0996,0.1035,0.1036,0.1037,0.1038,0.1091,0.1092,0.1093,0.1081,0,0,0.1097,0.1097,0,0,0,0,0,0,0,0,0.0914,0.0918,0.0973,0.0976,0.098,0.1012,0.0992,0.1025,0.1035,0.1012,0.1037,0.1038,0.1066,0.107,0.1073,0.1083,0.1085,0.1097,0.1098,0.1098,0.1098,0,0,0,0,0,0,0,0.0912,0.0917,0.0966,0.0974,0.0978,0.0983,0.0989,0.0998,0.1032,0.1014,0.1018,0.1026,0.1068,0.1071,0.1074,0.1086,0.1097,0.1098,0.1099,0.1099,0.1165,0.1166,0,0,0,0,0,0,0.0911,0.0915,0.0964,0.0967,0.0951,0.0984,0.099,0.0999,0.1032,0.1038,0.1025,0.1028,0.1069,0.1073,0.1076,0.1134,0.1098,0.1099,0.11,0.1164,0.1165,0.1166,0,0,0,0,0,0,0.0909,0.0915,0.0963,0.0944,0.095,0.0984,0.0994,0.1,0.1028,0.104,0.1046,0.1051,0.107,0.1075,0.1108,0.1134,0.11,0.1101,0.1163,0.1164,0.1166,0.1204,0,0,0,0,0,0,0.0907,0.0914,0.0927,0.0944,0.0952,0.0988,0.0993,0.1,0.1031,0.1036,0.1064,0.1068,0.1071,0.1106,0.1109,0.1135,0.1102,0.1161,0.1163,0.1165,0.1201,0.1206,0.1211,0,0,0,0,0,0.0904,0.0914,0.0927,0.0934,0.0966,0.0989,0.0994,0.1019,0.1032,0.1048,0.1069,0.1069,0.1121,0.1108,0.1111,0.1138,0.116,0.1163,0.1165,0.1199,0.1205,0.1211,0,0,0,0,0,0,0.0893,0.092,0.0934,0.0953,0.0979,0.0997,0.1017,0.1031,0.1059,0.1072,0.1079,0.1086,0.1126,0.1125,0.111,0.1162,0.1141,0.1144,0.1166,0.1172,0.1177,0.1174,0.1103,0,0,0,0,0,0.0895,0.0911,0.0939,0.0956,0.0974,0.0999,0.1015,0.1035,0.1058,0.1073,0.1091,0.1112,0.1132,0.1148,0.1163,0.1188,0.1193,0.1208,0.1213,0.1217,0.1218,0.1236,0.1242,0.1174,0.1174,0.1174,0,0,0.0899,0.0913,0.0925,0.0955,0.0979,0.1004,0.1012,0.1047,0.1067,0.1073,0.1112,0.1131,0.1143,0.1176,0.1193,0.1182,0.1244,0.122,0.1223,0.1222,0.1239,0.1246,0.1252,0.1175,0.1175,0.1175,0,0,0.0903,0.0927,0.0944,0.0967,0.1006,0.1021,0.1037,0.1072,0.1093,0.1127,0.114,0.1174,0.1202,0.1217,0.1226,0.1265,0.127,0.1276,0.1299,0.1317,0.1323,0.1328,0.1365,0.1373,0.1278,0.1278,0.1278,0,0.0909,0.093,0.0953,0.0975,0.0997,0.1032,0.1059,0.108,0.112,0.1138,0.1148,0.1206,0.1219,0.1257,0.1274,0.1277,0.1293,0.1276,0.1323,0.1328,0.1332,0.1369,0.1377,0.128,0.128,0.1279,0.1279,0,0.0926,0.0948,0.0963,0.1,0.1026,0.1057,0.1091,0.1122,0.1153,0.1172,0.1226,0.1249,0.1286,0.1297,0.1299,0.1342,0.1348,0.1328,0.1307,0.1342,0.1378,0.1386,0.1283,0.1282,0.1281,0.1281,0,0,0.0924,0.0967,0.0976,0.0994,0.1045,0.1066,0.1106,0.1148,0.1179,0.1222,0.1262,0.1304,0.133,0.1342,0.1357,0.1373,0.1427,0.1369,0.1369,0.1403,0.1489,0.14,0.14,0.1417,0.1418,0.1419,0.151,0,0.0936,0.0971,0.0993,0.1032,0.1056,0.1097,0.1128,0.117,0.121,0.1255,0.1292,0.1342,0.1343,0.138,0.1395,0.1425,0.1447,0.1406,0.1452,0.1454,0.1368,0.1405,0.1422,0.1516,0.1518,0.1519,0.152,0,0.0946,0.0967,0.1006,0.1046,0.1064,0.1096,0.1159,0.1193,0.1255,0.1289,0.1344,0.138,0.1442,0.1424,0.1494,0.1472,0.1485,0.1495,0.1498,0.1402,0.1377,0.1469,0.1534,0.1533,0.1532,0.1531,0.153,0,0.0926,0.0974,0.1003,0.102,0.1075,0.1107,0.1148,0.121,0.1248,0.1326,0.1369,0.1434,0.1489,0.1514,0.155,0.1535,0.1605,0.1585,0.1517,0.1513,0.1549,0.1542,0.1614,0.1613,0.1613,0.1613,0.1613,0,0.0915,0.0942,0.1,0.1015,0.1059,0.1106,0.1159,0.1208,0.1284,0.1326,0.1396,0.1438,0.1512,0.156,0.1573,0.1576,0.1632,0.1529,0.1525,0.1567,0.1561,0.1556,0.1548,0.1616,0.1616,0.1615,0.1614,0,0.0885,0.0923,0.0958,0.1023,0.1047,0.1086,0.1169,0.1202,0.1286,0.1348,0.1385,0.1475,0.1543,0.1597,0.1649,0.1605,0.1615,0.1592,0.1659,0.1656,0.1512,0.1505,0.1544,0.1542,0.154,0.1538,0.1536,0,0.0869,0.0884,0.0957,0.0977,0.1011,0.107,0.1104,0.1196,0.123,0.135,0.137,0.1477,0.1523,0.1543,0.1591,0.1626,0.1594,0.1593,0.1525,0.151,0.1503,0.1499,0.1496,0.1533,0.1532,0.1532,0.1531,0,0.0839,0.0875,0.0903,0.0943,0.0985,0.1021,0.1082,0.1101,0.1198,0.1289,0.1339,0.1383,0.1447,0.1493,0.1528,0.1537,0.1592,0.157,0.1574,0.1511,0.1497,0.1491,0.149,0.1524,0.1525,0.1526,0.1526,0,0.0821,0.0833,0.087,0.0898,0.0942,0.0956,0.0995,0.1037,0.1092,0.1224,0.1234,0.1338,0.143,0.1446,0.1472,0.1486,0.1466,0.1409,0.1421,0.1429,0.1345,0.1308,0.1279,0,0,0,0,0,0.0803,0.0802,0.0818,0.0841,0.0877,0.0906,0.0967,0.1004,0.1096,0.1109,0.1175,0.1231,0.1288,0.1336,0.1332,0.1417,0.1464,0.1403,0.1402,0.1483,0.1492,0.14,0,0,0,0,0,0,0.0787,0.0807,0.0799,0.0784,0.0786,0.0823,0.0859,0.0922,0.0932,0.1034,0.1075,0.1162,0.1238,0.1292,0.1313,0.1329,0.1303,0.1474,0.1471,0.1478,0.1486,0.1493,0.1402,0,0,0,0,0]},{"header":{"parameterUnit":"m.s-1","parameterCategory":2,"la1":30.2991,"la2":30.254,"lo1":-89.0895,"lo2":-89.0444,"dy":0.0017,"dx":0.0017,"nx":28,"ny":28,"refTime":"2023-09-01T21:00:00:Z","depth":"4","parameterNumber":3,"parameterNumberName":"V-component_of_CURRENTS"},"data":[0,0,0,0,0,0,0,0,0,0,0,0,0,0,0,0,0,0,0,0,0,0,0,0,0,0,0,0,0,0,0,0,0,0,0,0,0,0,0,0,0,0,0,0,0,0,0,0,0,0,0,0,0,0,0,0,0,0,0.0135,0.0134,0,0.0101,0.0101,0.01,0.0084,0.0084,0.0084,0.0084,0.0033,0.0031,0.003,0,0,0,0,0,0,0,0,0,0,0,0,0,0.0148,0.0148,0.0135,0.0134,0.0134,0.0101,0.0101,0.01,0.0084,0.0084,0.0084,0.0084,0.0033,0.0031,0.003,0,0,0,0,0,0,0,0,0,0,0,0,0,0.0131,0.0148,0.0135,0.0122,0.012,0.0101,0.0101,0.01,0.0084,0.0084,0.0084,0.0084,0.0034,0.0032,0.003,0.0017,0,0,0.0023,0.0022,0,0,0,0,0,0,0,0,0.0132,0.0131,0.0124,0.0123,0.0121,0.0097,0.0087,0.0071,0.0084,0.0097,0.0084,0.0084,0.0052,0.0049,0.0043,0.0014,0.0012,0.0023,0.0022,0.0021,0.002,0,0,0,0,0,0,0,0.0134,0.0132,0.0121,0.0124,0.0122,0.0105,0.0103,0.0084,0.0075,0.0096,0.0095,0.0091,0.0051,0.0045,0.0041,0.0011,0.0023,0.0021,0.002,0.0019,-0.0029,-0.0029,0,0,0,0,0,0,0.014,0.0133,0.0122,0.012,0.0127,0.0105,0.0103,0.0104,0.0075,0.0071,0.0091,0.0091,0.0048,0.0044,0.0039,0.0031,0.0021,0.0019,0.0018,-0.0029,-0.0029,-0.0029,0,0,0,0,0,0,0.0141,0.014,0.0124,0.0126,0.0123,0.0105,0.0107,0.0104,0.0097,0.0072,0.0067,0.0088,0.0048,0.0042,0.0026,0.0028,0.0018,0.0016,-0.0029,-0.0029,-0.0029,0.0008,0,0,0,0,0,0,0.0141,0.014,0.0145,0.0126,0.0123,0.0115,0.0107,0.0103,0.0095,0.0094,0.0068,0.0063,0.0047,0.0029,0.0024,0.0025,0.0015,-0.0029,-0.0029,-0.0029,0.0006,0.0009,0.0011,0,0,0,0,0,0.0142,0.0149,0.0145,0.0144,0.013,0.0115,0.0112,0.0099,0.0095,0.0093,0.0077,0.0064,0.0025,0.0027,0.0021,0.0022,-0.0029,-0.0029,-0.0029,0.0006,0.0008,0.0011,0,0,0,0,0,0,0.0157,0.0147,0.0143,0.0147,0.0133,0.0112,0.011,0.01,0.0086,0.0086,0.0063,0.0057,0.0044,0.0026,0.003,0.0007,-0.0005,-0.0006,0.0024,0.0026,0.0028,0.0044,0.0013,0,0,0,0,0,0.0163,0.0166,0.015,0.0153,0.0147,0.0129,0.0122,0.0113,0.0097,0.0091,0.0074,0.0055,0.0038,0.0028,0.001,-0.0003,-0.002,-0.0008,-0.0005,-0.0003,0.0005,-0.0015,-0.0013,-0.0029,-0.0029,-0.0029,0,0,0.0168,0.0164,0.0166,0.0156,0.0145,0.0142,0.0125,0.0116,0.0117,0.0087,0.0083,0.0062,0.0036,0.0024,0.0016,0.001,-0.001,-0.0004,-0.0001,0.0005,-0.0015,-0.0013,-0.0012,-0.0029,-0.0029,-0.0029,0,0,0.0179,0.0178,0.0183,0.0175,0.0161,0.0152,0.0151,0.0132,0.0127,0.0116,0.0098,0.0081,0.0053,0.0038,0.0026,0.0028,0.0004,0.0019,0.0041,0.0022,0.0024,0.0025,-0.0001,-0.0002,0.0019,0.0019,0.0019,0,0.0186,0.0193,0.018,0.0181,0.018,0.0159,0.0163,0.0154,0.0133,0.0132,0.012,0.0086,0.0062,0.0051,0.0051,0.0034,0.0017,0.0035,0.0026,0.0027,0.0027,0.0001,-0.0001,0.0021,0.002,0.002,0.002,0,0.0197,0.0204,0.0205,0.0205,0.02,0.02,0.0187,0.0184,0.0175,0.0165,0.0153,0.012,0.0101,0.0087,0.0068,0.006,0.0044,0.0033,0.0023,0.0032,0.0003,0.0,0.0023,0.0023,0.0022,0.0022,0,0,0.021,0.0213,0.0215,0.0224,0.0215,0.0215,0.0218,0.0216,0.0224,0.0199,0.0203,0.0169,0.0152,0.0137,0.0109,0.009,0.0071,0.0065,0.0063,0.0046,0.0024,-0.0001,-0.0006,0.0059,0.0059,0.0059,0.0,0,0.0223,0.0237,0.0234,0.0252,0.0259,0.025,0.0258,0.0254,0.0245,0.0243,0.0212,0.0202,0.0171,0.016,0.0137,0.0086,0.0066,0.0087,0.0013,0.0011,-0.0007,-0.0009,0.0058,-0.0002,-0.0003,-0.0003,-0.0004,0,0.0235,0.0245,0.0264,0.0285,0.0288,0.0297,0.0311,0.0315,0.0307,0.0297,0.028,0.0255,0.0222,0.0196,0.0122,0.0136,0.0088,0.0048,0.0044,0.001,-0.0018,-0.0012,-0.0009,-0.0008,-0.0008,-0.0008,-0.0007,0,0.0253,0.027,0.0291,0.0295,0.031,0.0322,0.0333,0.0333,0.0347,0.0331,0.0333,0.029,0.0267,0.0206,0.0119,0.0121,0.0035,0.0026,-0.004,-0.0043,-0.0019,-0.0019,-0.0017,-0.0016,-0.0016,-0.0016,-0.0016,0,0.0269,0.0288,0.0303,0.0315,0.0348,0.0349,0.038,0.0381,0.039,0.0407,0.0365,0.0357,0.027,0.021,0.0132,0.0032,0.0042,-0.0035,-0.0057,-0.0004,-0.0002,-0.0021,-0.0021,-0.0018,-0.0018,-0.0017,-0.0017,0,0.0284,0.0292,0.0321,0.0344,0.0357,0.0381,0.0418,0.044,0.0439,0.0459,0.0457,0.0406,0.0317,0.0223,0.0111,0.0048,-0.0046,-0.0081,-0.0022,-0.0041,-0.0114,-0.0111,-0.0157,-0.0158,-0.0159,-0.016,-0.0161,0,0.0293,0.0307,0.0343,0.0366,0.0379,0.0415,0.0442,0.0461,0.0486,0.0484,0.0495,0.0423,0.0371,0.0202,0.009,-0.0063,-0.0082,-0.0128,-0.0113,-0.011,-0.0127,-0.0122,-0.0118,-0.0162,-0.0163,-0.0163,-0.0163,0,0.031,0.0321,0.0343,0.0389,0.0424,0.0468,0.0508,0.0528,0.0547,0.055,0.0526,0.044,0.0335,0.0198,0.0075,-0.0032,-0.0097,-0.0139,-0.0138,-0.0124,-0.0117,-0.0132,-0.0127,-0.0167,-0.0167,-0.0166,-0.0166,0,0.0322,0.0339,0.0369,0.0409,0.0457,0.0505,0.0525,0.055,0.0574,0.0574,0.0557,0.0448,0.0387,0.0212,0.0097,-0.0014,-0.0039,-0.0064,-0.0066,-0.0064,-0.0024,-0.0,-0.0031,0,0,0,0,0,0.0332,0.0349,0.0388,0.0432,0.0481,0.0516,0.0563,0.0578,0.0591,0.0585,0.0578,0.048,0.0308,0.0228,0.0114,0.0063,-0.007,-0.0076,-0.0101,-0.0188,-0.0184,-0.0156,0,0,0,0,0,0,0.0337,0.037,0.0385,0.0445,0.048,0.0543,0.0575,0.0589,0.0585,0.0579,0.0489,0.0453,0.0282,0.0377,0.0113,0.0077,0.0045,-0.0155,-0.0158,-0.0191,-0.0187,-0.0183,-0.0153,0,0,0,0,0]}]]